Location: New Town
(33.2710°N, 90.7534°W)
Time: 20:30:54
(UTC+00:00)

Envisat - Pass Details

Date: 22 April 2021
Orbit: 764 x 766 km, 98.1° (Epoch: 06 May)

Event Time Altitude Azimuth Distance (km) Brightness Sun altitude
Rises 10:43:53 0° 26° (NNE) 3,233 7.0 -8.9°
Reaches altitude 10° 10:46:31 10° 38° (NE) 2,303 6.5 -8.3°
Maximum altitude 10:50:50 28° 96° (E) 1,409 5.2 -7.5°
Drops below altitude 10° 10:55:08 10° 155° (SSE) 2,291 5.6 -6.7°
Sets 10:57:43 0° 167° (SSE) 3,213 6.2 -6.1°
